Location: Vancouver
(49.2500°N, 123.1330°W)
Time: 00:34:25
(UTC-07:00)

Cosmos 676 Rocket - Visible Passes

Search period start: 18 October 2017 00:00
Search period end: 28 October 2017 00:00
Orbit: 754 x 785 km, 74.0° (Epoch: 17 October)

Date Brightness Start Highest point End Pass type
(mag) Time Alt. Az. Time Alt. Az. Time Alt. Az.
20 Oct 6.5 07:06:10 10° N 07:09:53 19° NE 07:13:32 10° E visible
21 Oct 6.6 06:30:14 10° N 06:32:47 13° NE 06:35:19 10° ENE visible
23 Oct 6.0 06:58:00 10° N 07:02:28 26° NE 07:06:52 10° ESE visible
24 Oct 6.5 06:21:47 10° N 06:25:29 19° NE 06:29:08 10° E visible
25 Oct 6.7 05:45:51 10° N 05:48:23 13° NE 05:50:55 10° ENE visible
26 Oct 5.4 06:49:58 10° NNW 06:54:56 39° ENE 06:59:49 10° SE visible
27 Oct 6.0 06:13:37 10° N 06:18:03 27° NE 06:22:28 10° ESE visible
